TimeMST,TemperatureF,Dew PointF,Humidity,Sea Level PressureIn,VisibilityMPH,Wind Direction,Wind SpeedMPH,Gust SpeedMPH,PrecipitationIn,Events,Conditions,WindDirDegrees,DateUTC
12:53 AM,39.0,21.0,49,29.93,10.0,Calm,Calm,-,N/A,,Clear,0,2012-11-08 07:53:00
1:53 AM,37.0,21.0,52,29.91,10.0,Calm,Calm,-,N/A,,Clear,0,2012-11-08 08:53:00
2:53 AM,37.0,21.0,52,29.90,10.0,Calm,Calm,-,N/A,,Clear,0,2012-11-08 09:53:00
3:53 AM,39.9,21.0,47,29.87,10.0,Calm,Calm,-,N/A,,Clear,0,2012-11-08 10:53:00
4:53 AM,41.0,21.0,45,29.87,10.0,Calm,Calm,-,N/A,,Clear,0,2012-11-08 11:53:00
5:53 AM,42.1,21.0,43,29.88,10.0,SE,5.8,-,N/A,,Clear,130,2012-11-08 12:53:00
6:53 AM,42.1,21.9,45,29.89,10.0,Calm,Calm,-,N/A,,Clear,0,2012-11-08 13:53:00
7:53 AM,44.1,21.9,42,29.90,10.0,SE,4.6,-,N/A,,Clear,140,2012-11-08 14:53:00
8:53 AM,50.0,23.0,35,29.89,10.0,SE,4.6,-,N/A,,Clear,140,2012-11-08 15:53:00
9:53 AM,55.9,21.9,27,29.85,10.0,Calm,Calm,-,N/A,,Clear,0,2012-11-08 16:53:00
10:53 AM,62.1,21.9,21,29.83,10.0,SE,3.5,-,N/A,,Clear,140,2012-11-08 17:53:00
11:28 AM,68.0,21.2,17,29.86,10.0,South,18.4,23.0,N/A,,Clear,190,2012-11-08 18:28:00
11:53 AM,69.1,19.9,15,29.77,10.0,SSW,21.9,28.8,N/A,,Clear,210,2012-11-08 18:53:00
12:53 PM,71.1,18.0,13,29.73,10.0,SSW,19.6,26.5,N/A,,Clear,210,2012-11-08 19:53:00
1:53 PM,69.1,18.0,14,29.73,10.0,SSW,20.7,28.8,N/A,,Clear,200,2012-11-08 20:53:00
2:53 PM,68.0,18.0,15,29.71,10.0,SW,21.9,25.3,N/A,,Clear,220,2012-11-08 21:53:00
3:53 PM,66.9,19.0,16,29.70,10.0,SSW,12.7,-,N/A,,Clear,210,2012-11-08 22:53:00
4:53 PM,64.9,18.0,16,29.70,10.0,SSW,12.7,-,N/A,,Clear,200,2012-11-08 23:53:00
5:53 PM,64.0,18.0,17,29.69,10.0,South,8.1,-,N/A,,Partly Cloudy,170,2012-11-09 00:53:00
6:53 PM,62.1,19.0,19,29.68,10.0,SE,4.6,-,N/A,,Mostly Cloudy,140,2012-11-09 01:53:00
7:53 PM,59.0,18.0,20,29.66,10.0,SE,5.8,-,N/A,,Overcast,130,2012-11-09 02:53:00
8:53 PM,59.0,19.0,21,29.63,10.0,SE,8.1,-,N/A,,Overcast,130,2012-11-09 03:53:00
9:53 PM,59.0,18.0,20,29.62,10.0,SSE,10.4,-,N/A,,Overcast,150,2012-11-09 04:53:00
10:53 PM,62.1,21.9,21,29.61,10.0,SSW,11.5,-,N/A,,Mostly Cloudy,200,2012-11-09 05:53:00
11:53 PM,63.0,28.9,28,29.59,10.0,SSW,19.6,26.5,N/A,,Mostly Cloudy,200,2012-11-09 06:53:00